Caldwell, NJ

3:44 PM EST on February 19, 2018 (GMT -0500)
Essex County

Weather History for KCDW - October, 2012

Change the Weather History Date:

Friday, October 5, 2012

  Actual Average Record
Temperature  
Mean Temperature 68 °F -  
Max Temperature 80 °F 68 °F 88 °F (1959)
Min Temperature 55 °F 45 °F 32 °F (1963)
Cooling Degree Days 2    
Growing Degree Days 18 (Base 50)    
Moisture  
Dew Point 57 °F    
Average Humidity 84    
Maximum Humidity 100    
Minimum Humidity 38    
Precipitation  
Precipitation 0.00 in - - ()
Sea Level Pressure  
Sea Level Pressure 30.05 in    
Wind  
Wind Speed 0 mph (WNW)    
Max Wind Speed 6 mph    
Max Gust Speed -    
Visibility 4 miles    
Events Fog    
Averages and records for this station are not official NWS values.
T = Trace of Precipitation, MM = Missing Value Source: NWS Daily Summary

Daily Weather History Graph

Daily Weather History Graph

Search for Another Location

Airport or City:

Trip Planner

Search our weather history database for the weather conditions in past years. The results will help you decide how hot, cold, wet, or windy it might be!

Date:

Astronomy

Oct. 05, 2012 Rise Set
Actual Time 6:58 AM EDT 6:31 PM EDT
Civil Twilight 6:30 AM EDT 6:59 PM EDT
Nautical Twilight 5:59 AM EDT 7:30 PM EDT
Astronomical Twilight 5:27 AM EDT 8:02 PM EDT
Moon 9:51 PM EDT (10/5) 12:05 PM EDT (10/5)
Length of Visible Light 12h 28m
Length of Day
11h 33m
Waning Gibbous, 74% of the Moon is Illuminated
Oct 5
Waning Gibbous
Oct 8
Last Quarter
Oct 15
New
Oct 21
First Quarter
Oct 29
Full

Hourly Weather History & Observations

Time (EDT) Temp. Heat Index Dew Point Humidity Pressure Visibility Wind Dir Wind Speed Gust Speed Precip Events Conditions
12:53 AM 60.1 °F - 59.0 °F 96% 30.08 in 0.2 mi Calm Calm - N/A Fog Fog
1:24 AM 60.8 °F - 57.2 °F 88% 30.07 in 0.5 mi Calm Calm - N/A Fog Fog
1:36 AM 59.0 °F - 57.2 °F 94% 30.07 in 0.2 mi Calm Calm - N/A Fog Fog
1:53 AM 60.1 °F - 57.9 °F 93% 30.09 in 0.2 mi Calm Calm - N/A Fog Fog
2:06 AM 59.0 °F - 57.2 °F 94% 30.07 in 0.5 mi Calm Calm - N/A Fog Fog
2:17 AM 59.0 °F - 57.2 °F 94% 30.07 in 0.2 mi Calm Calm - N/A Fog Fog
2:53 AM 59.0 °F - 57.9 °F 96% 30.08 in 0.2 mi Calm Calm - N/A Fog Fog
3:53 AM 59.0 °F - 57.9 °F 96% 30.07 in 0.2 mi Calm Calm - N/A Fog Fog
4:42 AM 57.2 °F - 55.4 °F 94% 30.06 in 0.2 mi Calm Calm - N/A Fog Fog
4:50 AM 57.2 °F - 55.4 °F 94% 30.06 in 0.5 mi Calm Calm - N/A Fog Fog
4:53 AM 57.0 °F - 55.9 °F 96% 30.08 in 0.5 mi Calm Calm - N/A Fog Fog
5:23 AM 57.2 °F - 55.4 °F 94% 30.07 in 0.5 mi Calm Calm - N/A Fog Fog
5:53 AM 55.9 °F - 55.0 °F 97% 30.09 in 0.8 mi Calm Calm - N/A   Clear
6:05 AM 57.2 °F - 55.4 °F 94% 30.08 in 2.0 mi Calm Calm - N/A   Clear
6:14 AM 57.2 °F - 55.4 °F 94% 30.08 in 0.8 mi Calm Calm - N/A   Clear
6:30 AM 57.2 °F - 55.4 °F 94% 30.08 in 1.5 mi Calm Calm - N/A   Clear
6:39 AM 57.2 °F - 55.4 °F 94% 30.08 in 2.5 mi Calm Calm - N/A   Clear
6:46 AM 55.4 °F - 53.6 °F 94% 30.08 in 0.8 mi Calm Calm - N/A   Mist
6:53 AM 55.9 °F - 55.0 °F 97% 30.09 in 0.5 mi Calm Calm - N/A Fog Fog
7:01 AM 57.2 °F - 55.4 °F 94% 30.07 in 0.8 mi Calm Calm - N/A   Clear
7:17 AM 55.4 °F - 55.4 °F 100% 30.08 in 1.0 mi Calm Calm - N/A   Clear
7:24 AM 55.4 °F - 55.4 °F 100% 30.08 in 0.2 mi Calm Calm - N/A Fog Fog
7:39 AM 57.2 °F - 55.4 °F 94% 30.08 in 0.8 mi Calm Calm - N/A   Clear
7:46 AM 57.2 °F - 55.4 °F 94% 30.08 in 1.5 mi Calm Calm - N/A   Clear
7:53 AM 57.0 °F - 55.9 °F 96% 30.09 in 1.2 mi Calm Calm - N/A   Clear
8:04 AM 57.2 °F - 55.4 °F 94% 30.08 in 7.0 mi Calm Calm - N/A   Clear
8:53 AM 61.0 °F - 59.0 °F 93% 30.10 in 7.0 mi Calm Calm - N/A   Clear
9:53 AM 66.0 °F - 57.9 °F 75% 30.10 in 10.0 mi Calm Calm - N/A   Clear
10:53 AM 70.0 °F - 59.0 °F 68% 30.09 in 10.0 mi Calm Calm - N/A   Clear
11:53 AM 73.9 °F - 55.9 °F 53% 30.07 in 10.0 mi Calm Calm - N/A   Clear
1:53 PM 78.1 °F - 55.0 °F 45% 30.01 in 10.0 mi Calm Calm - N/A   Clear
2:53 PM 80.1 °F 80.0 °F 54.0 °F 40% 29.99 in 10.0 mi WNW 5.8 mph - N/A   Clear
3:53 PM 80.1 °F - 52.0 °F 38% 29.97 in 10.0 mi Variable 3.5 mph - N/A   Clear
4:53 PM 78.1 °F - 57.0 °F 48% 29.98 in 10.0 mi Variable 3.5 mph - N/A   Clear
5:53 PM 75.9 °F - 57.9 °F 54% 29.98 in 10.0 mi Calm Calm - N/A   Clear
6:53 PM 71.1 °F - 59.0 °F 66% 29.98 in 10.0 mi Calm Calm - N/A   Clear
7:53 PM 68.0 °F - 59.0 °F 73% 29.98 in 10.0 mi Calm Calm - N/A   Clear
8:53 PM 66.9 °F - 59.0 °F 76% 29.98 in 10.0 mi Calm Calm - N/A   Clear
9:53 PM 64.9 °F - 59.0 °F 81% 29.97 in 9.0 mi Calm Calm - N/A   Clear
10:53 PM 64.0 °F - 59.0 °F 84% 29.96 in 8.0 mi Calm Calm - N/A   Clear
11:53 PM 61.0 °F - 57.0 °F 87% 29.95 in 7.0 mi Calm Calm - N/A   Clear